Wind_Speed
21 22 22 23 24 23 22 22 22 21 21 21 20 20 19 19 18 17 16 16 15 14 13 13 13 13 13 13 12 11 10 9 8 8 8 8 8 8 7 7 7 6 6 6 6 6 6 6 6 7 7 7 7 7 8 9 10 11 11 12 13 13 14
22 23 23 24 24 23 23 22 21 21 21 21 20 20 20 20 19 18 17 16 16 15 14 14 13 13 13 13 12 11 10 10 8 8 9 10 10 10 9 8 8 8 7 7 7 7 7 7 7 7 7 7 7 7 8 8 9 10 11 12 12 13 13
23 24 25 25 24 22 21 21 20 20 21 21 21 21 21 20 20 19 18 17 16 15 15 14 14 14 14 13 13 12 12 11 10 9 9 10 11 12 11 11 10 9 9 8 8 8 8 7 7 7 7 7 7 8 8 9 9 10 11 11 11 12 12
25 26 26 26 24 22 21 21 21 21 21 22 22 22 21 20 20 19 18 17 16 16 15 15 14 14 14 14 14 14 13 12 11 10 10 10 11 12 12 12 11 11 10 10 9 9 8 8 7 7 7 7 7 8 8 9 10 10 11 11 11 11 12
25 25 26 25 24 23 22 21 21 21 22 23 22 22 21 20 19 18 18 18 17 17 16 15 14 14 15 15 15 14 14 13 12 11 10 11 11 11 12 12 12 11 11 10 10 9 8 7 7 6 7 7 8 8 9 10 10 11 11 11 11 11 11
25 24 24 24 24 23 21 21 21 22 23 23 23 22 21 20 19 18 18 18 18 18 16 15 14 14 15 15 15 15 14 13 11 9 9 10 11 11 11 11 12 11 11 11 10 9 8 7 6 6 7 8 9 9 10 10 11 11 11 11 11 11 12
25 24 23 23 23 22 20 20 22 23 23 24 23 22 21 20 18 17 17 18 18 17 16 14 14 14 15 15 16 15 14 11 10 9 9 9 10 11 11 11 11 10 10 10 9 8 7 6 6 7 8 9 9 10 10 10 11 11 11 11 12 12 13
24 23 22 21 21 20 20 21 22 22 23 23 23 21 20 18 16 16 16 17 18 17 15 14 14 14 14 14 15 15 13 11 10 10 11 11 11 11 11 11 10 10 10 9 8 7 6 6 6 7 8 9 10 10 11 11 12 12 12 13 13 14 14
22 21 20 20 20 20 21 22 22 22 22 22 20 19 17 16 14 15 16 17 17 16 15 14 13 13 13 13 14 14 14 12 12 12 13 13 12 12 12 11 11 10 10 9 7 7 7 7 8 9 10 10 11 12 12 13 13 13 14 14 15 15 16
20 20 19 20 20 21 22 23 22 21 21 19 18 17 15 14 13 14 15 16 16 16 14 13 13 12 12 13 13 13 13 13 13 13 13 13 13 12 12 12 11 11 10 9 8 8 8 9 10 11 12 12 13 14 14 14 14 14 15 15 15 16 16
20 20 19 21 22 22 23 23 21 20 19 18 16 16 16 15 15 15 16 16 16 16 14 12 11 11 12 12 13 13 12 12 12 13 13 13 13 13 12 12 11 11 10 10 10 10 10 11 12 13 13 14 14 15 15 14 14 15 15 14 14 13 13
19 19 19 21 20 21 22 21 20 21 20 18 16 17 17 17 17 17 16 16 17 16 14 11 10 9 11 12 12 12 12 12 12 12 13 13 13 13 12 12 12 11 12 12 12 12 12 12 13 13 14 14 15 15 15 14 14 13 13 12 11 11 11
17 18 19 18 17 18 18 17 19 22 22 19 18 18 18 18 17 17 17 16 16 17 15 13 11 10 10 11 12 12 12 12 13 13 14 14 14 13 13 13 13 13 14 14 13 13 13 13 13 13 14 14 14 15 14 13 12 12 11 11 10 10 10
16 17 16 14 14 15 15 15 18 21 21 19 19 18 16 15 15 15 15 15 16 17 17 16 15 13 13 13 12 12 13 14 14 15 15 15 15 14 14 14 15 15 15 15 14 14 14 13 13 13 14 14 14 14 13 13 12 12 12 12 11 11 12
16 16 15 15 14 15 15 16 18 19 19 18 17 16 14 13 13 13 13 14 15 16 17 18 17 16 15 15 15 14 15 15 16 16 17 16 16 16 15 16 16 16 16 16 15 15 14 14 13 13 14 14 14 14 14 14 14 14 14 14 14 14 15
17 17 17 17 16 16 17 17 18 19 19 18 17 16 15 14 13 13 13 13 14 15 17 17 17 17 16 16 17 17 17 17 18 18 18 18 18 17 17 17 17 16 16 16 16 16 16 15 14 14 15 15 15 15 15 15 16 16 17 17 17 17 17
18 18 17 17 17 17 18 19 20 20 21 20 19 17 17 16 16 15 14 14 14 15 17 17 17 16 17 17 18 19 19 20 20 20 20 20 19 19 19 18 17 17 16 17 17 17 17 16 16 16 16 16 16 16 17 18 18 19 19 18 18 17 17
19 18 18 18 18 19 20 21 21 22 23 22 21 20 19 18 17 17 16 15 16 17 18 19 20 19 18 18 19 20 20 20 21 21 21 20 20 20 20 19 18 18 18 18 19 18 18 18 19 18 18 17 18 19 20 20 21 20 20 18 17 16 15
19 18 18 18 19 21 23 23 23 24 24 23 22 21 21 19 18 18 17 17 17 19 20 21 22 22 20 19 19 20 20 20 21 21 21 20 20 20 20 20 20 20 20 20 19 19 19 20 20 20 20 20 21 22 22 23 22 22 21 19 18 17 16
21 19 19 20 20 21 23 24 25 25 25 24 22 21 21 20 20 20 19 19 19 20 21 22 22 22 20 19 20 20 19 19 20 20 20 20 20 20 21 21 21 22 21 21 20 21 21 21 21 22 23 24 25 25 25 25 24 24 23 22 20 20 20
22 21 21 21 20 20 21 24 26 26 26 25 24 22 21 21 20 21 20 20 20 20 21 22 22 21 20 20 20 20 19 19 19 19 19 19 20 20 21 22 22 22 22 22 22 22 23 23 24 25 26 27 27 27 26 26 26 26 25 25 24 24 24
25 24 24 23 22 21 21 22 25 26 26 28 28 26 25 23 21 21 21 20 20 20 20 21 21 20 20 20 20 20 20 19 19 19 19 19 20 21 22 23 23 24 24 24 24 24 24 25 26 28 28 29 29 28 28 28 28 28 28 28 29 29 29
25 25 25 25 23 22 22 24 25 25 25 28 30 30 30 28 25 23 23 21 19 18 18 18 18 19 19 20 20 20 20 20 20 20 20 20 21 22 23 24 25 25 26 26 26 26 26 27 28 29 29 30 30 29 29 29 29 30 30 31 31 32 32
25 26 26 25 23 24 28 31 30 28 29 31 32 32 32 34 31 26 23 22 19 17 16 15 15 17 19 20 21 21 21 21 22 22 22 22 23 24 26 27 28 28 28 28 28 28 29 29 30 30 30 30 30 30 30 31 31 31 32 32 32 33 33
23 25 25 24 25 28 30 30 27 26 28 30 30 31 33 37 34 27 23 22 19 17 16 15 15 16 19 21 22 22 23 23 24 24 24 25 26 27 29 30 31 31 31 31 30 30 31 31 31 31 31 32 32 32 32 33 33 33 34 34 35 35 36
21 23 24 25 26 25 23 20 19 19 20 21 22 24 28 31 28 24 23 22 20 19 18 17 17 19 21 23 24 25 25 25 25 26 26 27 29 30 31 32 33 33 33 33 33 33 34 34 34 34 34 34 35 35 35 35 36 36 37 37 37 38 38
21 22 23 24 24 22 19 18 18 18 18 18 18 19 22 24 23 22 22 22 21 22 22 21 21 21 22 24 25 26 27 27 27 28 28 30 31 32 34 34 35 36 36 36 36 36 37 37 37 37 37 37 38 38 38 38 39 39 40 40 40 40 41
22 21 21 22 22 20 18 18 17 17 17 18 17 18 20 21 22 22 21 21 22 24 24 24 24 23 23 24 25 26 27 28 29 30 30 31 33 34 36 37 38 38 38 38 38 38 39 39 39 39 39 40 41 41 41 41 41 42 43 43 44 44 44
23 22 21 21 20 19 18 17 15 15 16 17 18 18 20 20 21 21 21 22 23 24 26 27 27 26 26 25 26 26 28 29 31 32 32 33 34 35 37 38 39 40 40 40 40 40 41 41 41 41 42 42 43 44 44 44 44 45 46 46 47 48 48
23 23 23 22 20 19 18 17 16 15 16 18 19 20 21 21 22 22 23 24 25 26 27 28 29 30 30 29 29 29 30 31 32 33 34 35 36 37 38 39 40 41 41 42 42 43 43 43 43 44 45 46 47 47 48 49 50 50 51 52 52 53 52
24 24 23 22 20 20 19 19 18 18 19 20 20 21 22 22 23 24 26 27 28 28 28 30 32 34 35 35 35 34 34 34 34 35 36 37 38 39 40 41 42 43 44 45 46 47 47 47 47 48 49 50 50 51 53 54 54 55 55 56 57 57 57
24 24 24 23 22 22 21 21 21 21 22 22 22 24 25 26 27 29 30 31 30 29 29 31 34 36 38 39 39 39 39 39 39 39 39 40 41 42 44 45 46 47 48 49 50 51 52 53 54 54 54 54 53 54 56 57 58 58 58 58 59 59 58
25 25 25 25 25 24 23 23 23 24 25 25 26 27 28 29 31 32 33 32 31 30 31 33 35 37 38 40 41 42 43 43 43 43 43 45 46 46 47 48 49 50 51 52 54 55 56 58 59 60 60 58 58 58 59 59 59 59 58 58 57 56 56
26 26 26 26 26 25 24 24 25 25 27 28 29 31 31 32 34 34 35 35 34 35 36 38 40 42 43 44 45 45 46 46 46 47 48 50 51 51 52 53 53 54 54 55 57 58 60 61 62 63 63 62 61 61 60 60 60 59 58 57 56 56 56
29 28 28 28 28 27 27 28 29 30 32 33 34 34 35 36 36 36 37 38 39 40 41 43 46 47 48 49 49 49 50 50 51 52 52 53 55 56 56 57 58 58 59 60 61 62 63 64 64 64 64 64 63 62 62 62 62 61 61 60 59 59 59
29 29 30 30 31 32 33 34 35 36 36 37 37 37 38 39 39 40 41 42 43 44 45 46 48 49 51 52 53 53 54 55 55 56 56 56 57 58 59 59 60 61 62 63 64 65 65 66 66 66 66 66 65 65 64 64 63 63 63 63 62 62 62
31 32 33 35 36 37 38 38 38 38 38 39 40 40 41 42 43 44 45 46 47 48 49 50 51 51 52 53 54 54 55 55 55 56 56 56 57 58 59 61 62 63 64 65 66 66 66 67 67 68 68 68 67 66 65 65 64 65 65 65 64 65 65
Wind_Direction
241 242 235 225 222 223 226 231 234 234 233 229 227 226 225 225 227 230 233 237 239 241 244 246 248 248 249 253 257 261 263 263 261 255 252 250 249 250 248 244 241 235 230 231 232 231 232 236 244 251 258 262 268 275 279 283 284 285 287 288 289 292 294
237 236 230 224 223 226 231 235 236 234 232 230 227 226 226 227 230 232 234 236 239 241 242 244 244 246 249 255 260 264 267 269 266 260 255 251 249 250 251 248 243 237 232 230 231 231 231 235 243 250 259 266 271 274 278 281 283 285 286 287 288 290 292
234 234 231 230 229 232 236 238 237 235 232 230 228 228 229 232 235 237 238 238 239 241 241 241 241 243 249 257 263 267 269 270 269 264 258 253 250 248 248 247 245 241 237 233 233 234 235 240 248 256 263 270 275 278 280 281 282 283 284 285 286 288 291
232 234 234 234 236 240 243 242 239 236 232 230 229 230 233 238 241 243 243 241 240 240 240 239 240 244 250 256 262 266 268 269 269 267 260 256 253 250 248 246 246 245 242 241 241 240 241 244 250 257 263 269 273 276 276 276 277 279 280 284 286 289 293
229 232 234 237 241 246 247 244 241 237 234 232 232 234 237 242 246 246 246 243 240 238 238 238 241 247 252 255 258 263 267 270 271 269 263 257 256 254 251 249 248 248 248 249 250 250 249 251 256 263 266 270 272 272 274 275 278 282 285 289 292 295 298
228 230 234 238 243 248 248 244 241 238 236 236 237 238 241 245 248 248 246 243 240 237 236 238 244 250 254 255 257 260 265 268 270 270 266 259 257 256 254 251 249 249 250 252 255 256 257 260 266 271 272 274 276 277 280 284 287 289 292 295 298 300 301
227 230 234 239 245 248 244 240 238 238 239 240 241 243 245 246 245 244 245 243 240 239 238 243 249 254 257 258 258 258 258 261 266 269 269 265 260 256 252 249 246 246 248 251 254 257 261 267 271 274 277 280 284 288 292 293 294 297 300 303 304 305 305
228 233 237 241 244 242 238 238 237 237 239 241 243 244 242 240 240 242 244 243 243 243 243 248 255 261 263 262 259 253 249 252 261 266 268 267 261 253 248 246 243 242 243 245 249 256 263 270 276 280 286 291 295 297 298 298 299 302 305 307 308 308 309
233 237 240 242 242 236 236 238 238 238 240 242 242 240 239 239 242 245 245 245 245 245 248 253 261 267 268 264 257 250 246 249 258 263 265 264 259 251 246 243 242 242 243 246 251 262 272 280 285 289 292 295 295 295 295 296 298 301 302 303 305 307 308
237 239 240 240 240 237 238 240 240 241 241 240 240 242 247 248 247 248 249 249 247 247 251 258 265 269 268 264 256 251 249 251 256 259 259 258 255 250 246 246 247 249 252 257 264 272 279 285 288 289 290 290 290 290 291 292 294 295 295 297 299 301 304
238 241 239 237 238 239 242 243 242 239 236 237 241 246 250 250 252 255 254 251 249 248 251 257 265 271 270 267 260 255 253 253 253 254 253 253 252 250 250 251 254 258 263 267 270 273 276 280 282 283 285 286 286 287 287 289 288 288 288 289 292 296 300
241 243 242 239 238 239 241 240 237 236 238 244 248 246 246 250 254 257 255 252 249 247 249 252 260 270 274 272 266 261 257 254 251 249 249 250 250 251 253 255 259 263 265 266 266 268 272 275 277 278 280 282 281 281 281 282 282 280 280 282 285 290 294
244 245 245 242 239 238 238 233 232 238 245 252 254 250 250 253 255 256 255 252 249 247 247 250 257 266 271 273 271 265 259 254 252 249 249 250 251 253 256 259 261 262 262 262 264 266 268 270 273 275 276 276 276 275 274 275 276 276 278 281 283 288 291
240 242 242 239 236 235 232 225 227 236 244 251 254 253 253 255 256 256 253 250 248 248 249 253 259 264 267 270 269 265 258 253 252 251 250 250 252 254 257 259 261 262 262 263 263 264 265 267 271 273 273 272 270 270 270 272 274 275 277 280 283 286 290
230 233 233 230 230 229 225 221 224 233 240 245 248 250 251 255 258 259 255 250 248 249 252 256 259 263 265 267 266 264 260 256 254 253 251 251 252 254 256 259 261 263 264 264 263 262 263 264 267 268 267 266 264 265 267 269 271 272 273 275 278 281 283
225 228 231 232 232 229 226 223 224 231 236 239 241 244 247 251 257 259 255 249 246 248 252 255 259 263 267 268 266 263 261 259 257 255 253 251 251 252 254 256 259 260 261 261 260 260 261 261 261 260 258 257 257 258 260 261 264 267 270 272 274 277 279
226 231 235 237 236 231 228 226 226 230 234 235 237 242 246 251 256 259 254 248 245 246 250 254 258 264 267 269 267 264 261 259 257 255 252 251 250 250 251 253 254 254 255 256 256 258 260 259 258 256 253 251 250 250 253 257 260 263 266 268 269 272 275
227 232 237 238 236 231 229 229 229 232 234 235 237 242 247 252 256 258 253 248 245 246 251 256 261 265 266 266 265 262 259 257 254 251 249 248 247 247 248 249 249 248 248 249 251 254 256 256 256 256 254 252 251 253 256 258 260 260 261 261 262 263 265
226 234 239 240 237 234 232 231 231 233 233 234 238 244 250 255 258 259 256 253 251 251 254 257 260 262 261 259 258 257 255 252 250 249 247 246 245 246 246 246 244 244 244 245 247 248 249 251 253 254 255 257 259 262 264 264 264 264 263 261 258 255 257
229 238 244 245 243 239 237 235 235 235 236 236 239 246 255 259 261 262 260 257 257 256 256 257 258 257 255 252 251 249 247 245 245 245 245 247 248 248 248 247 245 245 245 244 244 243 244 246 249 251 254 257 261 264 266 267 267 267 266 263 259 256 260
235 241 245 247 249 247 242 239 240 240 240 241 244 251 259 262 261 260 258 258 258 257 257 258 258 256 252 248 246 244 241 240 241 242 244 246 248 248 249 248 248 247 246 245 243 242 243 246 248 251 253 256 259 261 263 264 265 265 265 263 261 260 264
242 246 247 248 250 251 247 243 244 245 245 247 249 253 258 262 260 257 257 258 256 254 254 256 257 256 251 247 244 242 240 240 242 244 246 248 249 248 247 247 247 247 247 246 246 246 248 250 252 253 255 257 258 258 260 262 264 265 266 265 265 265 266
246 247 248 249 251 257 257 250 245 244 244 246 248 251 255 257 255 253 257 258 253 248 248 251 254 256 253 248 244 242 242 243 246 248 250 251 251 250 249 248 248 249 249 249 250 251 253 255 256 257 257 257 257 259 261 264 267 270 271 272 271 271 272
248 248 248 248 249 253 256 256 254 251 248 248 249 252 255 256 252 250 253 255 249 243 242 245 250 255 255 252 248 246 247 249 251 253 254 252 251 250 250 250 250 250 250 251 252 253 255 256 257 258 259 259 260 262 266 269 272 275 276 277 277 278 279
248 247 246 245 244 246 249 255 259 255 249 249 252 252 251 251 249 247 247 248 246 242 242 243 246 249 251 251 250 250 250 252 254 256 256 256 254 253 252 252 251 251 251 252 254 256 257 258 259 260 260 262 264 266 268 271 274 276 277 278 279 280 281
240 240 239 238 239 242 244 246 248 246 244 247 248 244 241 242 242 241 241 243 243 245 248 250 248 247 247 248 248 249 251 252 253 254 256 257 257 255 253 253 253 254 255 257 259 261 261 261 261 261 263 265 267 269 271 273 275 276 276 277 278 280 282
239 239 238 236 237 240 242 241 242 245 245 245 240 228 224 227 230 232 235 240 244 248 251 253 252 250 249 249 250 251 251 252 252 251 252 253 254 254 254 253 254 255 257 259 261 262 262 262 263 264 266 269 272 273 275 276 277 277 277 278 280 282 284
241 237 234 234 234 237 241 244 246 247 245 242 234 220 215 218 223 227 234 241 247 250 252 253 254 254 253 252 252 253 254 254 253 252 252 252 253 253 254 254 255 256 258 260 261 261 262 263 265 268 271 273 275 276 277 278 278 279 280 281 282 284 285
239 235 231 231 232 234 238 241 245 245 241 237 234 228 223 223 227 233 240 248 252 254 254 254 256 257 258 258 257 255 254 254 254 255 256 257 258 258 257 257 258 258 260 261 262 263 264 265 268 271 273 275 276 277 278 279 280 280 281 282 283 284 285
234 232 231 231 233 231 230 233 237 239 238 235 236 238 237 236 239 244 249 254 257 258 258 257 258 260 262 262 262 261 259 258 257 258 259 261 262 262 262 261 260 260 260 261 261 263 265 267 270 272 275 276 277 279 280 281 282 282 283 283 284 284 285
232 232 233 234 233 228 228 233 233 230 231 233 235 240 244 245 248 251 253 257 260 262 263 264 264 264 264 264 264 264 263 263 262 262 263 263 263 263 263 262 261 260 260 261 262 263 264 266 269 274 276 278 278 279 280 280 281 281 282 283 283 283 284
236 237 239 240 239 237 238 240 235 229 232 237 239 241 244 247 250 253 254 257 259 262 264 266 265 263 263 263 264 264 264 264 264 264 265 265 265 264 263 262 262 262 262 263 263 264 264 266 270 275 277 278 278 278 278 278 278 278 278 279 279 279 280
239 240 241 243 244 245 243 241 239 238 242 247 249 249 250 250 252 254 255 256 257 256 256 257 258 259 261 263 264 264 264 263 264 265 266 267 267 267 266 265 264 264 264 264 265 265 266 268 271 275 277 278 277 276 276 275 275 275 275 275 276 276 277
242 242 242 243 244 246 245 245 247 250 254 257 258 258 257 255 255 256 257 259 259 256 253 253 255 258 262 264 265 264 264 263 263 265 267 267 267 268 268 268 267 266 266 266 266 267 268 270 272 274 276 277 277 277 276 275 275 275 275 276 276 277 276
243 244 244 243 243 247 252 254 256 259 262 264 264 262 260 259 259 260 261 261 260 259 258 257 258 261 263 264 264 264 264 264 265 266 267 267 267 268 268 269 269 268 268 268 269 269 270 271 272 274 275 276 276 276 276 276 275 275 275 276 276 277 277
241 244 245 245 247 252 257 260 262 263 264 265 265 264 263 262 262 263 263 262 261 260 259 259 260 261 262 263 263 264 264 265 265 266 266 266 266 267 267 268 269 269 269 270 270 271 271 272 273 273 274 275 275 275 275 275 275 275 275 275 276 276 277
248 249 249 251 253 257 259 261 263 265 266 267 267 266 264 263 262 262 262 261 260 259 259 258 258 259 260 261 261 262 262 263 264 264 264 265 265 266 267 268 268 269 269 270 270 270 271 271 272 273 274 274 275 275 274 274 274 275 275 275 275 275 276
Height
5786 5786 5787 5788 5789 5791 5792 5793 5794 5795 5796 5797 5798 5799 5800 5801 5802 5802 5803 5803 5804 5804 5805 5805 5805 5805 5806 5806 5806 5807 5807 5807 5808 5808 5808 5808 5808 5809 5809 5809 5809 5809 5809 5809 5809 5810 5810 5810 5811 5811 5811 5812 5812 5813 5813 5813 5813 5813 5813 5813 5813 5813 5813
5783 5784 5785 5786 5788 5789 5790 5792 5792 5793 5794 5795 5797 5798 5799 5800 5800 5801 5801 5802 5802 5803 5803 5804 5804 5804 5804 5804 5805 5805 5806 5806 5806 5806 5806 5806 5807 5807 5808 5808 5808 5808 5808 5808 5808 5809 5809 5809 5809 5810 5810 5811 5811 5811 5812 5812 5812 5812 5812 5812 5812 5812 5812
5781 5782 5783 5785 5786 5788 5789 5790 5791 5792 5793 5794 5796 5797 5798 5798 5799 5800 5800 5801 5801 5802 5802 5802 5802 5802 5802 5803 5803 5804 5804 5804 5805 5805 5805 5805 5805 5806 5806 5807 5807 5807 5807 5807 5807 5808 5808 5808 5808 5809 5809 5809 5810 5810 5810 5810 5811 5811 5811 5811 5811 5811 5811
5778 5779 5781 5783 5785 5787 5788 5789 5790 5791 5792 5793 5794 5796 5797 5797 5798 5798 5799 5799 5800 5800 5800 5801 5801 5801 5801 5801 5801 5802 5802 5803 5803 5804 5804 5804 5804 5805 5805 5806 5806 5806 5806 5806 5806 5807 5807 5807 5807 5807 5808 5808 5808 5808 5809 5809 5809 5809 5809 5809 5809 5809 5809
5776 5778 5780 5782 5784 5785 5787 5788 5789 5790 5791 5792 5793 5794 5795 5796 5797 5797 5798 5798 5798 5799 5799 5799 5799 5799 5799 5800 5800 5800 5801 5801 5802 5802 5803 5803 5803 5803 5804 5804 5804 5804 5804 5805 5805 5806 5806 5806 5806 5806 5806 5807 5807 5807 5807 5807 5807 5807 5808 5808 5808 5807 5807
5774 5776 5778 5780 5782 5784 5785 5787 5787 5788 5789 5790 5791 5793 5794 5794 5795 5795 5796 5796 5797 5797 5798 5798 5798 5798 5798 5798 5798 5799 5799 5800 5800 5801 5801 5802 5802 5802 5802 5802 5803 5803 5803 5804 5804 5804 5804 5804 5804 5805 5805 5805 5805 5805 5805 5806 5806 5806 5806 5806 5806 5805 5805
5771 5774 5776 5779 5780 5782 5783 5784 5785 5786 5788 5788 5790 5791 5792 5792 5793 5793 5794 5794 5795 5795 5796 5796 5796 5796 5796 5796 5796 5797 5798 5798 5799 5799 5800 5800 5801 5801 5801 5801 5801 5802 5802 5802 5803 5803 5803 5803 5803 5803 5803 5803 5803 5803 5804 5804 5804 5804 5804 5804 5804 5804 5804
5770 5772 5775 5777 5778 5780 5781 5782 5783 5784 5785 5786 5788 5789 5789 5790 5791 5791 5792 5793 5793 5794 5794 5795 5795 5795 5794 5794 5794 5795 5796 5797 5797 5798 5798 5799 5799 5800 5800 5800 5800 5800 5801 5801 5801 5802 5802 5801 5801 5801 5802 5802 5802 5802 5802 5802 5802 5802 5802 5802 5802 5802 5802
5769 5771 5773 5775 5776 5777 5778 5779 5781 5782 5783 5784 5786 5787 5787 5788 5789 5790 5790 5791 5791 5792 5793 5793 5793 5793 5793 5792 5792 5793 5794 5795 5796 5796 5797 5797 5798 5798 5799 5799 5799 5799 5799 5800 5800 5800 5800 5800 5800 5800 5800 5801 5801 5801 5801 5801 5801 5801 5800 5800 5800 5800 5800
5768 5770 5771 5772 5773 5774 5776 5777 5779 5780 5781 5783 5784 5785 5786 5786 5787 5788 5788 5789 5789 5790 5791 5791 5791 5791 5791 5791 5791 5791 5792 5793 5794 5795 5795 5796 5797 5797 5797 5797 5798 5798 5798 5798 5799 5799 5799 5799 5799 5799 5800 5800 5800 5800 5800 5800 5799 5799 5799 5799 5799 5798 5798
5767 5768 5769 5770 5771 5773 5774 5776 5777 5778 5780 5781 5782 5783 5784 5784 5785 5786 5786 5786 5787 5788 5789 5789 5789 5789 5789 5790 5790 5790 5791 5791 5792 5793 5794 5794 5795 5796 5796 5796 5796 5797 5797 5797 5797 5798 5798 5798 5798 5798 5798 5798 5798 5798 5798 5798 5798 5798 5798 5797 5797 5797 5796
5765 5767 5768 5768 5770 5771 5773 5774 5776 5777 5778 5779 5780 5781 5782 5783 5783 5784 5784 5784 5785 5786 5787 5787 5787 5788 5788 5788 5788 5789 5789 5790 5791 5791 5792 5793 5793 5794 5794 5794 5795 5795 5795 5796 5796 5796 5797 5797 5797 5797 5797 5797 5797 5797 5797 5797 5797 5797 5796 5796 5795 5795 5794
5764 5765 5766 5767 5769 5770 5771 5773 5774 5775 5776 5777 5778 5779 5780 5781 5781 5782 5782 5782 5783 5784 5785 5785 5785 5786 5786 5786 5787 5787 5787 5788 5789 5790 5790 5791 5791 5792 5792 5792 5793 5793 5794 5794 5795 5795 5795 5796 5796 5796 5796 5796 5796 5796 5795 5795 5795 5795 5795 5794 5794 5793 5793
5763 5764 5765 5766 5767 5768 5769 5771 5773 5773 5774 5775 5776 5777 5778 5779 5779 5779 5780 5780 5781 5782 5783 5783 5784 5784 5784 5784 5785 5785 5786 5786 5787 5788 5788 5789 5789 5790 5790 5791 5791 5792 5792 5792 5793 5793 5794 5794 5794 5794 5794 5795 5795 5794 5794 5794 5793 5793 5793 5792 5791 5791 5790
5760 5761 5763 5764 5765 5766 5767 5769 5771 5771 5772 5773 5774 5775 5776 5776 5776 5777 5777 5778 5778 5779 5780 5781 5782 5782 5782 5783 5783 5783 5784 5784 5785 5786 5786 5787 5787 5788 5789 5789 5790 5790 5790 5790 5791 5791 5791 5792 5792 5793 5793 5793 5793 5793 5792 5792 5791 5791 5790 5790 5789 5789 5788
5758 5759 5760 5762 5763 5764 5765 5767 5768 5769 5770 5771 5772 5772 5773 5774 5774 5775 5775 5775 5776 5777 5778 5779 5779 5780 5780 5780 5781 5781 5782 5783 5783 5784 5784 5785 5785 5786 5787 5787 5787 5788 5788 5788 5788 5788 5789 5790 5790 5791 5791 5791 5791 5791 5791 5790 5790 5789 5788 5788 5787 5786 5786
5756 5756 5758 5760 5761 5762 5763 5765 5766 5767 5768 5769 5770 5770 5771 5772 5772 5773 5773 5774 5774 5775 5776 5776 5777 5777 5778 5778 5779 5779 5780 5780 5781 5782 5782 5783 5783 5784 5784 5785 5785 5785 5785 5785 5786 5786 5786 5787 5787 5788 5788 5789 5789 5789 5789 5788 5788 5787 5786 5785 5785 5784 5784
5754 5755 5756 5758 5759 5761 5761 5762 5764 5765 5766 5767 5768 5769 5769 5770 5771 5771 5772 5772 5772 5773 5773 5774 5774 5775 5775 5776 5776 5777 5777 5778 5779 5779 5780 5780 5781 5781 5782 5782 5783 5783 5783 5783 5783 5784 5784 5784 5784 5784 5785 5785 5785 5786 5785 5785 5785 5784 5784 5783 5782 5782 5781
5752 5753 5754 5756 5757 5759 5760 5761 5762 5762 5763 5764 5766 5766 5767 5768 5768 5769 5769 5769 5769 5770 5771 5771 5772 5772 5772 5773 5773 5774 5775 5776 5776 5777 5778 5778 5779 5779 5780 5780 5780 5780 5781 5781 5781 5781 5781 5781 5781 5781 5782 5782 5782 5782 5782 5781 5781 5781 5780 5780 5779 5779 5779
5749 5750 5752 5753 5755 5757 5758 5758 5759 5759 5761 5762 5763 5763 5764 5765 5766 5766 5766 5766 5767 5767 5768 5768 5769 5769 5770 5770 5770 5771 5772 5773 5774 5775 5776 5776 5777 5777 5778 5778 5778 5778 5778 5778 5779 5779 5779 5779 5779 5779 5779 5779 5779 5778 5778 5778 5778 5778 5777 5777 5776 5776 5775
5747 5748 5750 5751 5752 5754 5754 5755 5756 5757 5758 5759 5760 5760 5761 5761 5762 5763 5763 5764 5764 5764 5765 5766 5766 5767 5767 5767 5768 5769 5770 5771 5772 5773 5774 5774 5775 5775 5776 5776 5776 5776 5776 5776 5776 5776 5776 5777 5776 5776 5776 5776 5776 5775 5775 5775 5774 5774 5774 5773 5773 5772 5772
5745 5746 5747 5748 5749 5750 5751 5751 5752 5753 5755 5756 5756 5757 5758 5758 5759 5760 5761 5761 5762 5762 5762 5763 5764 5764 5765 5765 5766 5766 5768 5769 5770 5770 5771 5772 5773 5773 5773 5774 5774 5774 5774 5774 5774 5774 5774 5774 5774 5774 5773 5773 5773 5772 5772 5771 5771 5771 5770 5770 5769 5768 5768
5742 5743 5744 5745 5745 5746 5747 5747 5748 5750 5751 5752 5752 5753 5754 5755 5757 5758 5759 5759 5759 5759 5760 5760 5761 5762 5763 5763 5764 5764 5765 5766 5767 5768 5769 5770 5770 5771 5771 5771 5772 5772 5772 5772 5772 5771 5771 5771 5771 5770 5770 5770 5769 5769 5769 5768 5768 5768 5767 5766 5766 5765 5764
5738 5739 5740 5742 5743 5743 5743 5742 5743 5745 5747 5748 5748 5749 5750 5752 5753 5755 5756 5756 5756 5756 5757 5758 5759 5760 5761 5761 5762 5762 5763 5764 5764 5765 5766 5766 5767 5768 5768 5768 5768 5768 5768 5768 5768 5768 5768 5768 5767 5767 5767 5767 5766 5766 5766 5765 5765 5764 5764 5763 5762 5762 5761
5735 5736 5737 5738 5739 5740 5740 5739 5740 5741 5742 5743 5744 5745 5746 5747 5749 5751 5752 5753 5753 5753 5754 5755 5756 5757 5758 5759 5759 5759 5760 5760 5761 5761 5762 5762 5763 5763 5764 5764 5764 5764 5764 5764 5764 5764 5764 5764 5763 5763 5763 5763 5763 5762 5762 5762 5761 5760 5760 5759 5758 5758 5757
5732 5733 5734 5734 5735 5736 5736 5737 5737 5738 5738 5739 5739 5740 5741 5743 5746 5748 5749 5750 5750 5750 5751 5752 5753 5754 5755 5755 5755 5756 5756 5756 5756 5757 5757 5758 5758 5758 5759 5759 5760 5760 5760 5760 5760 5760 5759 5759 5759 5759 5759 5758 5758 5758 5758 5757 5756 5755 5754 5754 5754 5753 5752
5729 5730 5731 5731 5732 5733 5734 5735 5735 5736 5736 5736 5736 5737 5738 5740 5742 5744 5745 5747 5747 5748 5748 5749 5749 5750 5751 5751 5752 5752 5752 5752 5752 5753 5753 5753 5753 5753 5753 5754 5754 5755 5755 5755 5755 5755 5754 5754 5754 5754 5754 5753 5753 5753 5752 5751 5751 5750 5749 5748 5748 5748 5747
5727 5727 5728 5729 5730 5731 5731 5732 5733 5734 5734 5734 5735 5735 5736 5738 5739 5741 5742 5743 5744 5744 5745 5745 5746 5747 5747 5748 5748 5748 5748 5749 5749 5749 5749 5748 5748 5748 5748 5749 5749 5749 5749 5749 5749 5749 5748 5748 5748 5748 5748 5747 5747 5747 5746 5746 5745 5744 5743 5742 5742 5742 5741
5724 5725 5725 5726 5727 5728 5729 5730 5731 5732 5732 5733 5734 5734 5735 5736 5737 5738 5739 5740 5740 5741 5741 5742 5743 5743 5744 5744 5744 5744 5745 5745 5745 5745 5745 5745 5744 5744 5744 5744 5744 5744 5744 5744 5744 5743 5743 5743 5743 5743 5742 5742 5741 5741 5740 5740 5739 5737 5737 5736 5736 5735 5734
5721 5722 5722 5723 5724 5725 5726 5727 5728 5729 5729 5730 5731 5732 5733 5734 5734 5735 5736 5737 5737 5738 5738 5739 5739 5740 5740 5740 5740 5740 5741 5741 5741 5741 5740 5740 5740 5740 5740 5740 5740 5740 5740 5739 5738 5738 5738 5738 5738 5737 5736 5735 5735 5734 5733 5732 5731 5730 5730 5729 5728 5728 5727
5718 5719 5720 5721 5722 5723 5723 5724 5725 5725 5725 5727 5728 5729 5729 5730 5731 5732 5732 5733 5733 5734 5734 5735 5735 5735 5735 5735 5736 5736 5736 5736 5736 5736 5736 5735 5735 5735 5735 5735 5735 5734 5734 5733 5733 5733 5732 5732 5731 5730 5729 5729 5728 5727 5726 5725 5724 5724 5723 5722 5721 5720 5720
5716 5717 5717 5718 5719 5720 5721 5721 5722 5722 5722 5723 5725 5726 5726 5727 5727 5727 5728 5728 5728 5729 5729 5729 5729 5729 5730 5730 5730 5731 5731 5731 5731 5731 5730 5730 5730 5729 5729 5729 5728 5728 5728 5727 5726 5726 5726 5725 5724 5723 5722 5722 5721 5720 5718 5718 5718 5717 5716 5715 5714 5714 5713
5713 5714 5714 5715 5716 5716 5717 5718 5718 5719 5719 5720 5721 5722 5722 5723 5723 5723 5723 5723 5724 5724 5724 5723 5723 5724 5724 5724 5725 5725 5725 5725 5725 5725 5725 5725 5724 5723 5723 5722 5722 5722 5721 5720 5719 5719 5718 5717 5717 5715 5714 5713 5713 5712 5711 5710 5710 5710 5709 5708 5707 5707 5706
5709 5710 5711 5712 5712 5713 5713 5714 5714 5715 5716 5716 5717 5717 5718 5718 5718 5718 5718 5718 5719 5719 5719 5719 5719 5719 5719 5719 5719 5720 5720 5720 5720 5720 5719 5719 5718 5717 5716 5715 5714 5715 5714 5713 5712 5711 5710 5709 5708 5708 5706 5705 5704 5704 5703 5702 5702 5701 5701 5700 5699 5699 5698
5705 5706 5707 5708 5708 5709 5709 5710 5710 5711 5711 5712 5712 5712 5713 5713 5713 5712 5713 5713 5713 5713 5713 5713 5713 5713 5713 5713 5713 5713 5713 5714 5714 5713 5713 5712 5711 5710 5709 5708 5707 5707 5707 5706 5704 5703 5702 5701 5700 5699 5698 5697 5697 5696 5695 5694 5693 5692 5692 5692 5691 5690 5689
5701 5702 5703 5704 5704 5705 5705 5705 5706 5706 5706 5706 5706 5707 5707 5707 5707 5707 5707 5707 5707 5706 5706 5706 5706 5706 5705 5705 5705 5705 5705 5706 5706 5706 5705 5705 5704 5703 5702 5701 5700 5699 5698 5698 5697 5696 5694 5693 5692 5691 5689 5689 5688 5688 5686 5685 5684 5683 5683 5683 5683 5682 5681
5696 5697 5698 5699 5699 5700 5700 5700 5700 5700 5701 5701 5701 5701 5701 5701 5701 5700 5700 5700 5700 5699 5699 5698 5698 5698 5698 5697 5697 5697 5697 5697 5698 5698 5697 5697 5697 5696 5695 5694 5693 5691 5690 5689 5689 5688 5686 5685 5683 5682 5681 5680 5679 5679 5678 5677 5676 5675 5674 5674 5674 5673 5672